Location: Canazei
(46.4667°N, 11.7667°E)
Time: 04:46:15
(UTC+00:00)

Cosmos 1805 - Pass Details

Date: 21 April 2021
Orbit: 524 x 530 km, 82.5° (Epoch: 10 May)

Event Time Altitude Azimuth Distance (km) Brightness Sun altitude
Rises 02:35:30 0° 347° (NNW) 2,683 7.2 -16.0°
Reaches altitude 10° 02:37:40 10° 343° (NNW) 1,787 6.2 -15.7°
Maximum altitude 02:41:32 58° 265° (W) 624 3.3 -15.1°
Enters shadow 02:44:22 17° 189° (S) 1,380 4.9 -14.7°
